Forecast for Flamstone Farm, Bishopstone - last updated: Mon 14 Jun 23:00
Today     DescriptionTempPrecip.Rain risk%Pressure Wind AvGustHumidityVisibility
22:00 BSTCloudy18.4°C - 4 % 1022 mb14 mph78 %3.0 mls
Tue 15 Jun     DescriptionTempPrecip.Rain risk%Pressure Wind AvGustHumidityVisibility
01:00 BSTPartly cloudy (night)19.1°C - 0 % 1022 mb18 mph69 %16.4 mls
04:00 BSTPartly cloudy (night)14.9°C - 0 % 1022 mb16 mph56 %17.8 mls
07:00 BSTCloudy15.3°C - 3 % 1023 mb14 mph64 %15.9 mls
10:00 BSTPartly cloudy (day)17.7°C - 0 % 1022 mb10 mph59 %17.9 mls
13:00 BSTPartly cloudy (day)20.8°C - 0 % 1021 mb7 mph51 %18.7 mls
16:00 BSTSunny day22.9°C - 0 % 1020 mb9 mph44 %21.1 mls
19:00 BSTSunny day21.8°C - 0 % 1018 mb13 mph52 %19.3 mls
22:00 BSTClear night16.1°C - 0 % 1018 mb10 mph73 %16.2 mls
Wed 16 Jun     DescriptionTempPrecip.Rain risk%Pressure Wind AvGustHumidityVisibility
01:00 BSTClear night15.1°C - 0 % 1017 mb6 mph86 %13.0 mls
04:00 BSTClear night10.9°C - 0 % 1015 mb5 mph90 %11.4 mls
07:00 BSTSunny day14.3°C - 0 % 1015 mb7 mph79 %13.5 mls
10:00 BSTSunny day19.4°C - 0 % 1014 mb12 mph64 %17.5 mls
13:00 BSTSunny day23.0°C - 0 % 1012 mb15 mph49 %19.8 mls
16:00 BSTSunny day24.3°C - 1 % 1011 mb16 mph46 %20.7 mls
19:00 BSTCloudy22.3°C - 7 % 1010 mb13 mph54 %18.8 mls
22:00 BSTHeavy rain16.9°C1.5 mm76 % 1011 mb8 mph77 %11.6 mls
Thu 17 Jun     DescriptionTempPrecip.Rain risk%Pressure Wind AvGustHumidityVisibility
01:00 BSTCloudy17.7°C - 26 % 1010 mb11 mph90 %7.1 mls
04:00 BSTCloudy15.6°C - 18 % 1008 mb14 mph94 %4.4 mls
07:00 BSTCloudy15.7°C - 18 % 1009 mb16 mph94 %4.5 mls
10:00 BSTLight rain16.8°C1.4 mm51 % 1010 mb20 mph86 %7.8 mls
13:00 BSTCloudy19.5°C - 9 % 1011 mb20 mph71 %11.6 mls
16:00 BSTCloudy20.4°C - 6 % 1012 mb20 mph64 %17.1 mls
19:00 BSTCloudy18.4°C - 5 % 1013 mb18 mph66 %16.5 mls
22:00 BSTCloudy15.9°C - 5 % 1015 mb14 mph74 %16.5 mls
Fri 18 Jun     DescriptionTempPrecip.Rain risk%Pressure Wind AvGustHumidityVisibility
01:00 BSTCloudy15.5°C - 7 % 1016 mb19 mph77 %16.0 mls
04:00 BSTCloudy13.7°C - 8 % 1016 mb21 mph72 %14.3 mls
07:00 BSTLight rain shower (day)14.0°C0.7 mm33 % 1017 mb24 mph74 %13.1 mls
10:00 BSTLight rain15.1°C1.1 mm51 % 1017 mb26 mph72 %14.0 mls
13:00 BSTOvercast16.8°C - 31 % 1017 mb26 mph69 %11.8 mls
16:00 BSTLight rain17.3°C1.4 mm57 % 1017 mb23 mph69 %9.6 mls
19:00 BSTLight rain16.2°C1.1 mm58 % 1017 mb21 mph73 %8.7 mls
22:00 BSTLight rain shower (night)13.8°C1.1 mm39 % 1018 mb17 mph80 %10.5 mls
Sat 19 Jun     DescriptionTempPrecip.Rain risk%Pressure Wind AvGustHumidityVisibility
01:00 BSTCloudy13.3°C - 14 % 1018 mb14 mph85 %11.3 mls
04:00 BSTLight rain shower (night)11.2°C - 39 % 1017 mb12 mph90 %12.1 mls
07:00 BSTPartly cloudy (day)12.5°C - 4 % 1018 mb13 mph85 %12.7 mls
10:00 BSTPartly cloudy (day)15.3°C - 4 % 1018 mb16 mph73 %14.4 mls
13:00 BSTCloudy17.6°C - 8 % 1018 mb20 mph65 %14.9 mls
16:00 BSTPartly cloudy (day)18.2°C - 5 % 1016 mb20 mph64 %14.3 mls
19:00 BSTSunny day17.0°C - 5 % 1015 mb16 mph70 %14.9 mls
22:00 BSTPartly cloudy (night)13.7°C - 4 % 1015 mb12 mph83 %13.6 mls
Sun 20 Jun     DescriptionTempPrecip.Rain risk%Pressure Wind AvGustHumidityVisibility
01:00 BSTPartly cloudy (night)13.0°C - 9 % 1014 mb12 mph89 %11.5 mls
04:00 BSTLight rain shower (night)12.3°C - 33 % 1013 mb13 mph91 %8.3 mls
07:00 BSTLight rain13.4°C1.1 mm48 % 1012 mb15 mph88 %8.6 mls
10:00 BSTLight rain shower (day)15.9°C1.5 mm37 % 1012 mb18 mph80 %10.0 mls
13:00 BSTCloudy17.8°C - 14 % 1011 mb21 mph72 %12.4 mls
16:00 BSTCloudy18.1°C - 13 % 1010 mb21 mph70 %13.0 mls
19:00 BSTLight rain17.0°C - 44 % 1009 mb19 mph74 %12.8 mls
22:00 BSTCloudy14.6°C - 15 % 1010 mb16 mph83 %11.4 mls
Never base important decisions that could result in harm to people or property on this weather information.